This is the latest recevied weather packets stored in our database for station/object KB1JDX. If no packets are shown the sender has not sent any weather packets the latest 10 day(s).
| Time | Temp. | Humidity | Pressure | Rain* | Wind** | Luminosity | Snow |
|---|---|---|---|---|---|---|---|
| 1787509094 | 23.33° C | 100% | 1009.3 hPa | 0 mm | 0 m/s | - | - |
| 1787509025 | 23.33° C | 100% | 1009.4 hPa | 0 mm | 0 m/s | - | - |
| 1787507892 | 22.78° C | 100% | 1009.4 hPa | 0 mm | 0 m/s | - | - |
| 1787506692 | 22.22° C | 100% | 1009.6 hPa | 0 mm | 0 m/s | - | - |
| 1787505425 | 21.67° C | 100% | 1009.8 hPa | 0 mm | 0 m/s | - | - |
| 1787504293 | 21.11° C | 100% | 1009.6 hPa | 0 mm | 0 m/s | - | - |
| 1787503093 | 20.56° C | 100% | 1009.3 hPa | 0 mm | 0 m/s | - | - |
| 1787501892 | 20° C | 100% | 1009.6 hPa | 0 mm | 0 m/s | - | - |
| 1787501825 | 20° C | 100% | 1009.5 hPa | 0 mm | 0 m/s | - | - |
| 1787500694 | 19.44° C | 100% | 1009.5 hPa | 0 mm | 0 m/s | - | - |
| 1787499493 | 19.44° C | 100% | 1010.2 hPa | 0 mm | 0 m/s | - | - |
| 1787498294 | 19.44° C | 100% | 1010.9 hPa | 0 mm | 0 m/s | - | - |
| 1787498225 | 19.44° C | 100% | 1011 hPa | 0 mm | 0 m/s | - | - |
| 1787497093 | 20° C | 100% | 1011.5 hPa | 0 mm | 0 m/s | - | - |
| 1787495891 | 20° C | 100% | 1010.9 hPa | 0 mm | 0 m/s | - | - |
| 1787494692 | 20° C | 100% | 1010.6 hPa | 0 mm | 0 m/s | - | - |
| 1787494625 | 20° C | 100% | 1010.7 hPa | 0 mm | 0 m/s | - | - |
| 1787493494 | 20° C | 100% | 1010.7 hPa | 0 mm | 0 m/s | - | - |
| 1787492293 | 19.44° C | 100% | 1010.7 hPa | 0 mm | 0 m/s | - | - |
| 1787491092 | 19.44° C | 100% | 1010.7 hPa | 0 mm | 0 m/s | - | - |
| 1787491025 | 19.44° C | 100% | 1010.7 hPa | 0 mm | 0 m/s | - | - |
| 1787489893 | 19.44° C | 100% | 1010.9 hPa | 0 mm | 0 m/s | - | - |
| 1787488695 | 19.44° C | 100% | 1011.1 hPa | 0 mm | 0 m/s | - | - |
| 1787487493 | 19.44° C | 100% | 1010.8 hPa | 0 mm | 0 m/s | - | - |
| 1787487425 | 19.44° C | 100% | 1010.9 hPa | 0 mm | 0 m/s | - | - |
* Rain latest hour (hover to see other rain measurements)
** Current wind speed in m/s (hover to see current wind gust speed)